[TLELIST] Archives

 

[list_settings.list_name] Current TLEs

December 20th 2013 PDT

HST 1 20580U 90037B 13352.54023385 .00003090 00000-0 20406-3 0 3977 2 20580 028.4694 143.7280 0003099 150.0875 267.7142 15.04374651 97474 ISS (ZARYA) 1 25544U 98067A 13354.28418337 .00019533 00000-0 34260-3 0 2770 2 25544 051.6493 266.2683 0004470 288.4395 071.6625 15.49907953267674 CXO 1 25867U 99040B 13353.05329747 -.00000546 00000-0 00000+0 0 9728 2 25867 076.3624 329.1661 8357133 276.0668 000.0825 00.37796953 11232 ____________________________________________________________________ These 2-Line ...Continue Reading

[list_settings.list_name] Current TLEs

December 19th 2013 PDT

HST 1 20580U 90037B 13352.54023385 .00003090 00000-0 20406-3 0 3977 2 20580 028.4694 143.7280 0003099 150.0875 267.7142 15.04374651 97474 ISS (ZARYA) 1 25544U 98067A 13353.40054550 .00019519 00000-0 35058-3 0 2697 2 25544 051.6521 270.6406 0004682 288.2373 178.2677 15.49876922863435 CXO 1 25867U 99040B 13353.05329747 -.00000546 00000-0 00000+0 0 9728 2 25867 076.3624 329.1661 8357133 276.0668 000.0825 00.37796953 11232 ____________________________________________________________________ These 2-Line ...Continue Reading

[list_settings.list_name] Current TLEs

December 18th 2013 PDT

HST 1 20580U 90037B 13350.89396491 .00003254 00000-0 21556-3 0 3962 2 20580 028.4689 154.5324 0003217 132.9847 351.4750 15.04364924 97239 ISS (ZARYA) 1 25544U 98067A 13352.43347462 .00020849 00000-0 37429-3 0 2610 2 25544 051.6518 275.4302 0004614 284.8674 182.3283 15.49843379863282 CXO 1 25867U 99040B 13353.05329747 -.00000546 00000-0 00000+0 0 9728 2 25867 076.3624 329.1661 8357133 276.0668 000.0825 00.37796953 11232 ____________________________________________________________________ These 2-Line ...Continue Reading

[list_settings.list_name] Current TLEs

December 17th 2013 PDT

HST 1 20580U 90037B 13350.89396491 .00003254 00000-0 21556-3 0 3962 2 20580 028.4689 154.5324 0003217 132.9847 351.4750 15.04364924 97239 ISS (ZARYA) 1 25544U 98067A 13351.46706374 .00021791 00000-0 39131-3 0 2544 2 25544 051.6516 280.2174 0004644 281.0041 190.6865 15.49806338863137 CXO 1 25867U 99040B 13353.05329747 -.00000546 00000-0 00000+0 0 9728 2 25867 076.3624 329.1661 8357133 276.0668 000.0825 00.37796953 11232 ____________________________________________________________________ These 2-Line ...Continue Reading

[list_settings.list_name] Current TLEs

December 16th 2013 PDT

HST 1 20580U 90037B 13349.83375275 .00003584 00000-0 23865-3 0 3951 2 20580 028.4687 161.4906 0003269 121.8378 009.4978 15.04359898 97071 ISS (ZARYA) 1 25544U 98067A 13350.43375266 .00022221 00000-0 39949-3 0 2469 2 25544 051.6501 285.3354 0004587 275.1077 187.7075 15.49761280862973 CXO 1 25867U 99040B 13350.40800502 -.00000701 00000-0 00000+0 0 9719 2 25867 076.3428 329.3184 8361238 276.0983 359.9378 00.37799930 11223 ____________________________________________________________________ These 2-Line ...Continue Reading

[list_settings.list_name] Current TLEs

December 15th 2013 PDT

HST 1 20580U 90037B 13348.55581326 .00003768 00000-0 25161-3 0 3949 2 20580 028.4684 169.8776 0003345 109.4059 287.3663 15.04349396 96875 ISS (ZARYA) 1 25544U 98067A 13349.27096979 .00021744 00000-0 39182-3 0 2389 2 25544 051.6503 291.0938 0004662 272.9481 178.3636 15.49708058862798 CXO 1 25867U 99040B 13350.40800502 -.00000701 00000-0 00000+0 0 9719 2 25867 076.3428 329.3184 8361238 276.0983 359.9378 00.37799930 11223 ____________________________________________________________________ These 2-Line ...Continue Reading

[list_settings.list_name] Current TLEs

December 14th 2013 PDT

HST 1 20580U 90037B 13346.97999410 .00003564 00000-0 23742-3 0 3936 2 20580 028.4684 180.2195 0003395 093.9232 031.9466 15.04337654 96645 ISS (ZARYA) 1 25544U 98067A 13348.24975299 -.00010815 00000-0 -18391-3 0 2317 2 25544 051.6506 296.1516 0004898 262.9082 247.4134 15.49660632862635 CXO 1 25867U 99040B 13350.40800502 -.00000701 00000-0 00000+0 0 9719 2 25867 076.3428 329.3184 8361238 276.0983 359.9378 00.37799930 11223 ____________________________________________________________________ These 2-Line ...Continue Reading

[list_settings.list_name] Current TLEs

December 13th 2013 PDT

HST 1 20580U 90037B 13346.97999410 .00003564 00000-0 23742-3 0 3936 2 20580 028.4684 180.2195 0003395 093.9232 031.9466 15.04337654 96645 ISS (ZARYA) 1 25544U 98067A 13347.41068598 .00030921 00000-0 53946-3 0 2267 2 25544 051.6510 300.3037 0001440 246.7542 258.9412 15.50427813862503 CXO 1 25867U 99040B 13350.40800502 -.00000701 00000-0 00000+0 0 9719 2 25867 076.3428 329.3184 8361238 276.0983 359.9378 00.37799930 11223 ____________________________________________________________________ These 2-Line ...Continue Reading

[list_settings.list_name] Current TLEs

December 12th 2013 PDT

HST 1 20580U 90037B 13345.85210262 .00002732 00000-0 17922-3 0 3921 2 20580 028.4686 187.6222 0003448 081.8568 043.7379 15.04333040 96476 ISS (ZARYA) 1 25544U 98067A 13346.43485072 .00058392 00000-0 10086-2 0 2201 2 25544 051.6485 305.1401 0001723 236.6543 218.8844 15.50416964862357 CXO 1 25867U 99040B 13347.76407767 -.00000884 00000-0 00000+0 0 9701 2 25867 076.3333 329.4637 8364028 276.1285 359.9762 00.37801058 11219 ____________________________________________________________________ These 2-Line ...Continue Reading

[list_settings.list_name] Current TLEs

December 11th 2013 PDT

HST 1 20580U 90037B 13343.99791382 .00002900 00000-0 19100-3 0 3917 2 20580 028.4688 199.7918 0003554 063.1023 081.1701 15.04323098 96197 ISS (ZARYA) 1 25544U 98067A 13345.46812736 .00015419 00000-0 26848-3 0 2122 2 25544 051.6506 309.9332 0001729 123.0639 332.8040 15.50951540862200 CXO 1 25867U 99040B 13347.76407767 -.00000884 00000-0 00000+0 0 9701 2 25867 076.3333 329.4637 8364028 276.1285 359.9762 00.37801058 11219 ____________________________________________________________________ These 2-Line ...Continue Reading
  • This mailing list is a public mailing list - anyone may join or leave, at any time.
  • This mailing list is announce-only.

International Space Station (ISS) / Hubble Space Telescope (HST) / Chandra X-Ray Observatory Orbital Data via EMAIL

Privacy Policy:

Private list